Overview Statistics Trail Chart Weather Telemetry Raw packets
 

This is the latest recevied weather packets stored in our database for station/object EA3CH. If no packets are shown the sender has not sent any weather packets the latest 10 day(s).

<< 25 26 27 28 29 30 31 >>
Time Temp. Humidity Pressure Rain* Wind** Luminosity Snow
1788071404 16.67° C 84% 1019.6 hPa 0 mm - 0 W/m² -
1788070504 16.67° C 85% 1019.5 hPa 0 mm - 0 W/m² -
1788069605 17.22° C 73% 1019.2 hPa 0 mm - 0 W/m² -
1788069603 16.11° C 84% 1019.5 hPa 0 mm - 0 W/m² -
1788068704 16.11° C 85% 1019.4 hPa 0 mm - 0 W/m² -
1788067806 16.67° C 74% 1019.2 hPa 0 mm - 0 W/m² -
1788067804 16.11° C 84% 1019.3 hPa 0 mm - 0 W/m² -
1788066903 16.11° C 84% 1019.2 hPa 0 mm - 0 W/m² -
1788066006 16.67° C 77% 1019 hPa 0 mm - 0 W/m² -
1788066004 16.11° C 86% 1019.2 hPa 0 mm - 0 W/m² -
1788065106 16.11° C 79% 1019 hPa 0 mm - 0 W/m² -
1788065104 16.11° C 88% 1019.1 hPa 0 mm - 0 W/m² -
1788064218 16.11° C 79% 1019 hPa 0 mm - 0 W/m² -
1788064218 15.56° C 90% 1019.2 hPa 0 mm - 0 W/m² -
1788063303 15° C 92% 1019.2 hPa 0 mm - 0 W/m² -
1788062404 15° C 95% 1019.2 hPa 0 mm - 0 W/m² -
1788061505 15° C 96% 1019.1 hPa 0 mm - 0 W/m² -
1788060603 15° C 95% 1019.2 hPa 0 mm - 0 W/m² -
1788059704 15° C 95% 1019.2 hPa 0 mm - 0 W/m² -
1788058805 15.56° C 85% 1019.1 hPa 0 mm - 0 W/m² -
1788057903 15° C 97% 1019.3 hPa 0 mm - 0 W/m² -
1788057004 15° C 97% 1019.4 hPa 0 mm - 0 W/m² -
1788056105 15.56° C 85% 1019.3 hPa 0 mm - 0 W/m² -
1788056104 15° C 95% 1019.5 hPa 0 mm - 0 W/m² -
1788055205 15.56° C 85% 1019.4 hPa 0 mm - 0 W/m² -

* Rain latest hour (hover to see other rain measurements)
** Current wind speed in m/s (hover to see current wind gust speed)